Location: Newark
(35.0033°N, 81.0878°W)
Time: 12:17:25
(UTC+00:00)

Envisat - Pass Details

Date: 07 August 2021
Orbit: 764 x 766 km, 98.2° (Epoch: 22 September)

Event Time Altitude Azimuth Distance (km) Brightness Sun altitude
Rises 09:24:31 0° 35° (NE) 3,235 7.6 -14.4°
Reaches altitude 10° 09:27:51 10° 58° (ENE) 2,304 7.0 -13.8°
Maximum altitude 09:30:43 15° 92° (E) 1,968 6.0 -13.3°
Drops below altitude 10° 09:33:34 10° 127° (SE) 2,294 5.8 -12.8°
Sets 09:36:52 0° 150° (SSE) 3,215 6.2 -12.2°
